Wind_Speed
54 54 54 54 54 54 54 53 53 54 54 53 53 53 53 53 53 53 53 53 53 54 54 54 54 55 55 56 57 57 58 58 58 55 53 52 52 51 50 50 50 50 49
56 56 56 57 57 57 56 56 56 55 55 55 55 55 54 54 55 55 55 55 56 56 56 56 57 57 58 58 59 59 59 58 57 55 52 52 52 51 51 51 50 49 48
58 58 58 58 58 58 57 57 57 56 56 56 56 56 56 56 57 57 57 57 57 57 58 58 58 59 59 59 59 59 58 57 57 55 52 52 52 52 51 50 48 48 47
57 58 59 60 59 59 59 58 58 58 58 58 58 58 58 58 58 59 59 59 59 59 59 60 60 59 59 59 59 58 57 57 56 54 53 52 52 51 50 49 47 47 46
57 57 58 59 60 60 59 59 60 60 59 59 59 59 59 59 59 60 60 60 60 60 60 60 60 60 59 58 58 57 56 56 55 54 53 52 51 50 49 48 47 46 45
56 57 57 58 59 59 60 60 60 61 61 61 60 60 60 60 60 60 61 61 61 60 60 60 60 59 58 58 57 56 55 54 54 53 52 51 50 49 48 47 47 46 46
56 57 58 59 60 60 60 61 61 61 61 60 61 61 61 60 61 61 61 61 61 60 60 59 59 58 58 57 56 55 55 54 54 54 52 51 50 49 49 48 47 47 46
56 57 58 59 60 60 60 60 60 60 60 60 61 61 61 61 61 61 61 61 61 60 60 59 59 58 57 56 56 55 54 54 53 53 52 51 50 49 49 48 48 47 46
57 58 59 60 60 60 61 61 61 61 61 61 61 61 61 61 61 61 61 61 61 60 59 59 58 57 57 56 56 55 54 53 52 52 52 51 50 50 49 48 48 47 47
59 59 60 61 61 61 61 61 62 62 62 61 61 62 62 62 61 61 61 61 60 59 59 59 58 57 57 56 56 55 55 54 53 52 52 51 50 49 49 48 48 48 47
62 62 62 63 63 62 62 63 63 63 63 63 64 64 64 64 64 63 62 61 61 60 60 59 59 58 57 57 57 56 55 55 54 52 52 51 50 50 49 49 49 48 47
61 61 62 62 63 63 64 64 64 65 65 66 66 66 66 65 65 64 63 62 61 61 60 60 59 59 58 58 57 56 55 54 54 53 52 52 51 51 50 49 48 47 47
60 60 62 63 63 64 64 65 66 66 66 66 65 65 65 65 64 64 63 62 62 61 60 60 60 59 58 58 57 56 55 55 54 53 52 52 52 51 49 49 48 47 48
61 62 62 63 64 65 65 66 67 67 67 66 66 66 66 66 65 64 64 63 63 63 62 62 61 60 59 58 58 56 56 56 55 54 53 53 52 51 50 49 49 48 48
61 62 63 64 64 65 65 66 67 67 66 66 66 67 67 67 66 65 65 65 64 64 63 63 62 61 60 59 59 58 57 56 56 55 54 53 52 51 51 50 50 50 50
61 62 62 62 63 64 64 65 65 66 66 66 66 67 67 67 66 66 66 66 65 65 64 63 62 62 61 60 59 58 58 57 56 55 54 53 53 52 52 52 52 51 52
61 62 63 63 63 64 64 64 64 64 64 65 65 65 65 65 65 65 65 64 64 64 64 62 62 61 61 60 59 58 58 57 57 56 55 54 54 54 54 54 54 53 54
62 63 63 63 64 64 64 64 64 64 64 64 63 64 64 64 64 64 64 64 64 63 63 62 61 61 60 59 59 59 58 58 57 57 56 56 56 56 56 56 56 55 55
62 62 63 63 64 64 64 64 64 64 64 63 62 62 62 62 62 62 62 62 62 61 61 60 60 60 59 59 58 58 58 58 58 58 58 58 57 57 57 57 57 56 56
61 61 62 62 62 62 62 61 61 62 62 61 60 60 59 59 59 59 60 60 60 59 59 59 59 59 58 58 58 58 59 59 59 59 59 59 58 58 58 58 57 57 57
62 61 61 61 61 61 61 60 60 61 60 59 58 58 58 58 58 58 57 58 59 59 59 59 58 58 58 57 57 58 59 59 59 59 59 59 58 58 58 57 57 57 57
61 61 61 60 59 60 60 60 59 59 58 58 58 57 57 58 58 58 58 57 58 58 58 58 58 58 58 58 58 59 59 59 59 59 58 58 59 58 57 57 57 57 57
59 59 58 58 58 58 58 58 58 58 58 58 57 56 55 56 57 57 57 56 56 55 56 56 56 57 57 58 59 59 58 58 58 58 58 58 58 58 58 58 57 57 57
57 57 57 56 57 57 57 57 57 57 57 57 56 55 55 55 55 54 53 52 53 53 54 55 55 55 56 57 57 56 56 57 57 57 57 58 58 58 58 58 58 58 59
56 55 55 55 55 56 56 56 56 56 55 55 55 55 55 54 53 52 51 51 52 52 53 54 54 54 54 55 55 55 55 56 57 58 58 58 59 59 59 59 59 59 60
54 54 54 54 53 53 53 53 53 53 53 53 53 53 53 52 51 51 51 51 51 51 52 52 53 53 53 54 55 55 56 57 58 58 59 59 59 59 59 59 59 60 60
Wind_Direction
258 259 260 261 261 262 262 264 265 266 267 267 268 269 270 271 273 274 275 277 278 280 281 283 284 285 286 287 288 290 291 293 294 295 296 296 297 299 300 301 301 302 302
258 259 260 261 262 263 263 264 265 266 267 268 268 269 271 272 273 273 275 277 278 280 281 282 283 284 285 286 288 289 291 292 293 294 295 295 296 297 298 299 300 301 301
259 260 261 262 263 263 264 264 265 266 267 267 269 270 271 272 273 274 275 276 278 280 281 282 283 285 286 287 288 289 290 291 292 293 294 294 295 296 297 298 298 299 299
260 260 261 262 263 263 264 264 265 266 267 267 268 269 271 272 273 274 275 277 278 279 280 281 283 284 285 286 287 288 289 290 291 292 293 293 294 295 296 297 296 297 298
260 261 262 263 263 264 264 265 265 266 267 268 269 270 271 272 274 275 276 277 278 278 279 281 282 283 285 286 287 287 289 289 290 291 292 293 294 294 295 295 295 295 297
261 262 263 263 264 265 266 266 266 267 267 268 269 271 272 273 274 276 277 277 278 279 279 281 282 283 284 285 286 287 288 289 289 290 291 292 293 293 293 292 294 295 296
261 261 262 263 264 265 266 267 268 268 268 269 270 271 272 273 275 276 278 278 278 279 280 281 281 282 283 284 285 286 286 287 288 289 290 291 290 290 290 291 292 294 295
261 261 262 263 264 265 266 266 267 268 268 269 270 271 272 273 275 277 278 278 278 279 280 280 281 281 282 283 283 284 285 285 286 287 288 288 288 288 289 290 291 292 293
261 262 262 263 264 264 265 266 267 267 268 269 271 272 273 274 275 277 277 278 278 278 279 280 280 280 281 281 282 283 283 283 284 285 286 286 286 287 288 289 289 290 292
263 263 264 264 265 265 266 267 268 269 269 270 272 273 274 275 276 277 277 277 278 278 278 279 279 279 280 280 280 281 282 282 282 283 284 285 285 286 286 287 288 289 290
265 266 266 267 267 267 267 268 269 269 270 271 272 273 274 275 276 277 277 277 277 277 277 277 278 278 279 280 280 281 281 281 281 282 283 284 284 284 285 286 286 287 289
267 266 267 267 268 269 269 270 270 270 271 272 273 274 275 276 276 276 276 276 277 277 277 276 276 277 278 279 280 279 280 280 281 281 282 283 283 283 283 284 285 286 287
269 269 269 269 270 270 271 272 272 273 273 274 274 274 275 275 275 275 275 275 276 276 276 275 275 276 278 278 279 278 279 279 280 280 281 281 281 281 282 282 283 284 286
271 271 272 271 272 272 273 274 274 274 274 275 275 275 274 274 273 274 274 274 274 274 275 274 275 276 276 277 277 277 277 278 278 279 279 279 279 280 280 281 282 283 285
272 272 273 273 273 273 274 274 275 275 275 275 275 275 274 273 272 272 272 272 272 272 273 273 273 274 274 275 275 276 276 277 277 277 277 277 278 279 280 280 281 282 284
272 273 273 274 274 274 274 274 274 275 275 276 275 275 274 273 272 272 272 271 271 271 271 272 272 273 273 274 274 274 275 275 275 275 276 276 277 278 279 280 281 282 283
273 273 273 273 274 274 274 275 275 275 275 275 275 274 273 273 273 272 272 271 271 270 271 271 271 271 272 272 272 273 273 273 273 274 275 275 276 277 278 280 281 281 283
274 274 273 274 274 275 275 276 276 276 276 275 274 274 274 273 272 272 272 271 270 270 270 270 270 270 271 270 270 271 272 272 272 273 274 275 276 277 278 279 280 281 283
275 275 274 275 275 275 276 276 277 277 277 276 274 274 273 273 272 271 271 271 270 270 270 269 269 269 269 269 270 270 271 270 271 272 273 274 275 276 278 279 280 281 283
275 275 275 276 276 276 276 277 277 277 276 275 275 274 273 272 272 271 270 270 269 269 269 269 268 269 268 269 269 270 270 270 271 271 272 273 275 276 277 278 279 280 282
276 276 276 276 276 276 277 277 277 277 276 275 274 273 273 273 272 271 271 270 269 268 268 269 268 268 268 268 269 270 271 271 271 271 272 273 275 276 277 278 279 280 281
276 276 276 276 276 276 276 276 276 275 275 274 274 274 273 272 272 272 271 270 269 269 268 268 268 267 267 268 268 269 269 270 271 271 273 273 275 276 276 278 278 279 281
277 276 275 275 275 275 275 275 275 275 275 274 274 274 273 273 272 272 271 270 269 268 268 268 268 268 267 267 268 269 269 270 271 271 273 274 275 275 276 277 278 279 280
278 277 276 276 275 275 275 275 275 275 274 275 274 274 274 274 273 272 271 270 269 268 267 267 267 268 268 267 268 269 270 270 270 271 273 274 274 275 276 277 278 279 280
279 278 277 277 276 276 276 275 275 274 275 275 274 274 274 274 273 271 270 269 269 268 267 267 268 268 268 268 268 269 270 271 271 272 273 274 274 275 276 277 278 279 280
279 279 278 278 278 277 277 276 276 276 275 275 275 275 275 273 272 270 269 269 269 268 269 269 269 269 269 269 270 270 271 272 273 273 274 274 275 275 276 277 278 279 280
Height
5744 5746 5748 5749 5750 5752 5753 5754 5755 5755 5755 5755 5755 5755 5754 5754 5753 5752 5751 5750 5748 5747 5746 5744 5742 5739 5737 5734 5731 5728 5725 5722 5720 5721 5716 5711 5707 5703 5699 5694 5690 5685 5681
5731 5733 5734 5736 5737 5738 5740 5741 5741 5742 5742 5742 5742 5742 5741 5741 5740 5739 5738 5737 5735 5734 5732 5730 5729 5726 5724 5721 5718 5716 5713 5709 5707 5707 5704 5699 5695 5691 5687 5683 5679 5674 5670
5717 5719 5721 5722 5723 5725 5726 5726 5727 5728 5728 5728 5728 5728 5728 5727 5726 5725 5724 5723 5722 5721 5719 5717 5715 5712 5710 5707 5705 5702 5699 5696 5693 5692 5691 5687 5683 5679 5675 5672 5668 5664 5659
5703 5705 5706 5708 5709 5710 5711 5712 5712 5713 5713 5713 5713 5713 5713 5713 5712 5711 5709 5709 5707 5706 5704 5702 5700 5698 5696 5693 5691 5688 5686 5683 5680 5678 5677 5674 5671 5667 5663 5660 5656 5652 5648
5689 5691 5692 5693 5694 5695 5696 5697 5697 5698 5698 5698 5699 5699 5698 5698 5697 5696 5694 5693 5692 5691 5690 5688 5686 5683 5681 5679 5677 5675 5672 5670 5667 5665 5663 5660 5658 5654 5651 5648 5645 5641 5637
5675 5676 5677 5678 5679 5680 5681 5681 5682 5682 5683 5683 5683 5683 5683 5683 5682 5680 5679 5678 5677 5676 5675 5673 5671 5669 5667 5664 5663 5660 5658 5656 5654 5651 5649 5647 5645 5642 5638 5635 5632 5629 5626
5660 5661 5662 5663 5664 5665 5665 5666 5666 5667 5667 5667 5667 5667 5667 5667 5666 5664 5663 5661 5661 5660 5659 5657 5656 5654 5652 5650 5648 5646 5644 5642 5640 5637 5636 5634 5631 5629 5625 5623 5620 5617 5614
5645 5646 5646 5647 5648 5649 5649 5650 5650 5651 5651 5651 5651 5651 5651 5651 5649 5648 5646 5645 5645 5644 5643 5641 5640 5638 5636 5634 5633 5631 5629 5628 5625 5623 5621 5620 5617 5615 5612 5610 5607 5604 5601
5629 5630 5631 5631 5632 5633 5633 5633 5634 5634 5635 5635 5635 5635 5635 5635 5633 5632 5630 5629 5628 5628 5627 5625 5624 5623 5621 5619 5617 5616 5615 5613 5611 5609 5607 5605 5603 5601 5599 5596 5593 5591 5588
5613 5613 5614 5615 5616 5616 5617 5617 5617 5617 5618 5618 5618 5618 5618 5618 5617 5615 5613 5612 5611 5611 5610 5609 5608 5606 5605 5603 5602 5600 5600 5599 5596 5594 5592 5591 5589 5587 5584 5582 5580 5577 5575
5595 5596 5597 5597 5598 5599 5600 5600 5600 5600 5600 5601 5601 5601 5600 5600 5599 5597 5596 5594 5594 5593 5592 5592 5591 5589 5588 5587 5586 5585 5584 5583 5581 5579 5577 5576 5574 5572 5570 5567 5565 5563 5561
5578 5579 5580 5580 5580 5581 5581 5582 5582 5582 5582 5582 5582 5583 5583 5582 5581 5579 5578 5577 5575 5575 5575 5574 5573 5572 5571 5570 5570 5569 5568 5566 5565 5564 5562 5561 5559 5557 5555 5553 5551 5549 5546
5561 5561 5562 5562 5563 5563 5563 5563 5563 5563 5563 5563 5563 5563 5563 5563 5562 5561 5559 5558 5557 5556 5556 5556 5555 5555 5554 5554 5553 5552 5551 5550 5549 5548 5547 5545 5544 5542 5540 5538 5536 5534 5532
5543 5544 5544 5544 5544 5544 5544 5544 5544 5543 5543 5543 5543 5543 5543 5543 5543 5541 5540 5539 5539 5538 5537 5537 5537 5537 5537 5537 5536 5536 5535 5534 5532 5532 5530 5529 5528 5526 5525 5523 5522 5520 5518
5526 5525 5525 5525 5525 5525 5525 5525 5524 5524 5523 5522 5522 5521 5521 5522 5522 5521 5520 5520 5519 5518 5517 5518 5518 5519 5519 5519 5519 5518 5518 5517 5516 5515 5514 5513 5512 5510 5509 5508 5506 5504 5503
5507 5507 5506 5506 5506 5505 5505 5506 5505 5504 5503 5502 5501 5500 5500 5500 5500 5500 5499 5499 5498 5498 5498 5498 5499 5500 5500 5500 5500 5500 5500 5500 5499 5498 5497 5496 5495 5494 5493 5491 5490 5488 5486
5488 5488 5488 5487 5486 5486 5485 5485 5485 5485 5484 5482 5481 5479 5479 5479 5479 5478 5478 5477 5477 5477 5478 5479 5479 5480 5481 5481 5481 5481 5482 5482 5481 5480 5480 5479 5478 5478 5476 5475 5473 5472 5470
5469 5468 5468 5467 5467 5466 5465 5464 5463 5463 5463 5462 5461 5459 5458 5458 5458 5457 5457 5456 5457 5457 5458 5459 5460 5460 5461 5461 5462 5462 5463 5463 5462 5462 5462 5462 5461 5460 5459 5458 5456 5454 5453
5450 5449 5448 5447 5447 5446 5445 5444 5443 5442 5441 5441 5440 5440 5438 5437 5437 5437 5436 5436 5437 5437 5438 5439 5440 5440 5441 5442 5442 5443 5443 5444 5444 5444 5443 5443 5442 5442 5441 5439 5438 5436 5435
5431 5430 5429 5428 5427 5426 5425 5424 5423 5422 5421 5420 5419 5419 5418 5417 5417 5417 5417 5417 5417 5418 5419 5419 5420 5421 5422 5422 5423 5424 5424 5424 5425 5425 5424 5424 5424 5423 5422 5421 5419 5418 5416
5412 5411 5409 5408 5408 5407 5406 5405 5404 5402 5401 5400 5400 5399 5399 5398 5398 5398 5397 5397 5398 5399 5400 5400 5401 5401 5402 5403 5404 5405 5405 5406 5406 5405 5405 5405 5404 5404 5403 5402 5401 5399 5398
5393 5392 5391 5390 5389 5388 5387 5386 5384 5383 5382 5381 5381 5380 5379 5379 5378 5378 5378 5378 5378 5379 5380 5381 5381 5382 5383 5384 5385 5386 5386 5386 5386 5386 5386 5386 5385 5384 5383 5382 5381 5380 5379
5375 5374 5372 5371 5370 5369 5368 5367 5366 5365 5364 5363 5362 5361 5361 5360 5360 5359 5359 5359 5359 5360 5360 5361 5362 5363 5364 5365 5366 5366 5367 5367 5367 5367 5367 5366 5366 5365 5364 5363 5362 5361 5359
5357 5355 5354 5353 5352 5351 5350 5349 5348 5346 5345 5344 5344 5343 5342 5342 5341 5340 5340 5340 5340 5341 5341 5342 5343 5344 5345 5345 5346 5347 5347 5347 5347 5347 5347 5347 5346 5345 5344 5343 5342 5341 5340
5340 5338 5337 5335 5334 5333 5331 5330 5329 5328 5327 5326 5325 5325 5324 5323 5322 5322 5322 5322 5322 5322 5323 5324 5324 5325 5326 5327 5327 5328 5328 5327 5327 5327 5327 5327 5326 5325 5324 5324 5323 5321 5320
5323 5321 5319 5318 5316 5315 5313 5312 5311 5310 5309 5308 5307 5306 5306 5305 5304 5304 5304 5304 5304 5304 5305 5305 5306 5307 5307 5308 5308 5308 5308 5308 5308 5307 5307 5307 5306 5305 5304 5304 5302 5301 5299